METEOR 1-26

导读 | 豆包AI

METEOR 1-26(流星1-26)是独联体(CIS,继承苏联航天资产)于1976年10月15日发射的第一代极轨气象卫星,属于苏联“流星(METEOR)”气象卫星系列。该星运行在约900km高度的非太阳同步极轨道,配备电视相机、红外扫描仪等载荷,可获取全球云图与大气辐射数据,为气象预报和气候研究提供观测支持,是苏联早期气象卫星组网的重要成员。

Basic Information
目录编号:
9481
目录名称:
METEOR 1-26
国际标识:
1976-102A
轨道中心:
EARTH
卫星名称:
METEOR 1-26
卫星全名:
--
卫星状态:
在轨 (已飞行18048 天)
发射日期:
1976-10-15 UTC
国别 :
俄罗斯(独联体) (CIS)
星等 :
--
Orbit Information
数据来源 国际轨道数据 AOE轨道数据
星历时间 2026-03-15T05:34:51+0800
14小时前
查看轨道信息
2026-03-14T11:00:00+0800
1天前
查看轨道信息
半长轴 7236.333km 7236.326km
偏心率 0.002338 0.0023764
轨道倾角 81.218° 81.218°
近地点辐角 171.567° 173.935°
升交点赤经 136.530° 137.286°
平近点角 188.590° 217.596°
近地点 841.277km 840.992km
远地点 875.115km 875.386km
周期 102.103分钟 102.103分钟
每日圈数 14.103437 14.103457
Detailed Information
使用方式:
暂无
2D Orbit Map
3D Orbit Map
Orbit Altitude Analysis Chart
Orbit Inclination Analysis Chart
Orbit Comprehensive Analysis Chart
View Comprehensive Chart